Home   Weather   Hamamatsu   Past weeks

Flag for Japan Past Weather in Hamamatsu, Japan — Yesterday and Last 2 Weeks

Now
40 °F

Quite cool.


Feels Like: 38 °F
Forecast: 38 / 51 °F
Wind: 3 mph from Northwest

Location: Omaezaki

Current Time: Feb 27, 2017 at 6:27:06 am

Latest Report: Feb 27, 2017 at 5:00 am


Visibility: 13 mi

Pressure: 30.14 "Hg

Humidity: 72%

Dew Point: 32 °F

Location of HamamatsuLocation

Past Weather in Hamamatsu — Graph

°F

Hamamatsu Temperature Yesterday

Maximum temperature yesterday: 54 °F (at 1:00 pm)
Minimum temperature yesterday: 40 °F (at 3:00 am)
Average temperature yesterday: 47 °F

High & Low Weather Summary for the Past Weeks

 TemperatureHumidityPressure
High62 °F (Feb 20, 11:00 am)96% (Feb 23, 7:00 am)30.33 "Hg (Feb 23, 7:00 am)
Low32 °F (Feb 15, 7:00 am)22% (Feb 19, 10:00 am)29.38 "Hg (Feb 20, 5:00 pm)
Average47 °F53%30.03 "Hg
* Reported Feb 12 5:00 am — Feb 27 5:00 am, Hamamatsu, Weather by CustomWeather, © 2017

Note: Actual official high and low records may vary slightly from our data, if they occured in-between our weather recording intervals... More about our weather records

Advertising

Hamamatsu Weather History for the Previous 24 Hours

Scroll right to see more
 ConditionsComfort  
Time TempWeatherWind HumidityBarometerVisibility
5:00 am
Mon, Feb 27
40 °FQuite cool.3 mph72%30.14 "Hg12 mi
4:00 am40 °FQuite cool.7 mph66%30.14 "Hg12 mi
3:00 am42 °FQuite cool.8 mph65%30.12 "Hg12 mi
2:00 am42 °FQuite cool.7 mph63%30.14 "Hg12 mi
1:00 am43 °FQuite cool.6 mph62%30.13 "Hg12 mi
12:00 am44 °FQuite cool.8 mph60%30.11 "Hg12 mi
11:00 pm
Sun, Feb 26
44 °FQuite cool.8 mph58%30.12 "Hg12 mi
10:00 pm46 °FCool.9 mph54%30.11 "Hg12 mi
9:00 pm46 °FCool.9 mph51%30.10 "Hg12 mi
8:00 pm48 °FCool.9 mph49%30.08 "Hg12 mi
7:00 pm50 °FCool.14 mph47%30.07 "Hg12 mi
6:00 pm51 °FCool.15 mph45%30.04 "Hg12 mi
5:00 pm52 °FCool.18 mph44%30.03 "Hg12 mi
4:00 pm53 °FCool.17 mph48%30.03 "Hg12 mi
3:00 pm53 °FCool.18 mph46%30.03 "Hg12 mi
2:00 pm53 °FCool.17 mph46%30.03 "Hg12 mi
1:00 pm54 °FCool.16 mph44%30.04 "Hg12 mi
12:00 pm52 °FCool.20 mph49%30.08 "Hg12 mi
11:00 am52 °FCool.20 mph48%30.09 "Hg12 mi
10:00 am49 °FCool.17 mph52%30.10 "Hg12 mi
9:00 am47 °FCool.15 mph52%30.10 "Hg12 mi
8:00 am44 °FQuite cool.14 mph61%30.11 "Hg12 mi
7:00 am42 °FQuite cool.14 mph58%30.11 "Hg12 mi
6:00 am42 °FQuite cool.12 mph62%30.09 "Hg12 mi
Weather by CustomWeather, © 2017

See weather overviewHow to use our weather pages